Theta_e
326 328 332 334 339 326 330 328 320 322 321 320 317 318 319 319 324 319 321 325 323 322 323 329 329 329 328 325 325 328 325 325 327 327 326 324 322 323 326 329 331 332 332 333 331 332 334 335 336
324 329 330 332 336 332 330 321 323 323 320 318 317 318 319 319 321 322 322 324 322 321 320 320 326 327 322 322 330 329 328 330 329 328 327 325 324 324 325 327 329 329 330 332 331 331 333 334 336
330 332 336 336 334 331 331 322 321 320 318 318 319 319 320 321 321 321 321 320 319 316 315 315 318 318 320 327 328 326 326 331 330 329 328 327 325 324 325 327 328 329 329 329 331 330 331 333 335
331 332 329 336 335 332 330 329 318 319 317 316 317 320 321 320 321 321 320 318 317 315 314 315 319 324 329 334 333 331 332 330 330 329 328 328 327 325 325 326 326 327 328 329 328 332 331 332 333
327 329 334 335 334 329 321 318 317 320 318 317 318 320 322 320 319 319 316 316 316 315 314 316 318 323 327 331 334 332 328 327 326 326 327 326 326 326 325 325 326 326 326 327 328 330 332 331 332
331 330 335 335 334 330 323 318 317 319 318 318 319 321 322 319 318 316 317 317 316 316 317 317 319 323 326 333 329 328 328 327 327 326 325 325 325 326 326 325 325 325 325 325 327 328 329 330 330
331 332 332 333 334 328 322 316 317 319 318 318 320 321 321 319 315 315 314 313 313 314 316 318 318 317 318 327 328 326 321 325 325 325 325 324 325 326 325 325 325 327 326 325 325 330 327 331 330
329 331 333 330 330 330 320 317 316 318 319 318 320 321 321 318 313 313 315 315 315 317 319 320 319 317 316 318 318 320 321 321 323 324 325 325 324 325 326 325 324 325 326 325 325 330 329 330 331
324 330 329 329 329 327 317 318 316 317 319 318 318 318 316 314 313 315 317 318 318 319 320 321 321 319 318 320 321 320 320 320 320 321 320 320 322 322 322 324 325 324 325 326 326 329 329 329 331
327 329 329 328 325 324 319 318 318 319 319 319 318 315 313 314 315 317 318 318 320 320 320 321 319 319 320 321 320 319 319 319 318 320 319 319 320 319 316 319 321 323 325 325 326 329 330 329 332
325 325 324 324 325 321 320 316 317 319 320 320 320 317 316 316 317 317 318 319 321 320 319 321 319 319 321 321 321 321 320 318 318 319 318 318 319 318 317 320 322 324 324 324 327 328 329 331 331
324 325 325 325 321 318 318 317 318 319 320 319 318 317 316 317 317 318 319 320 321 320 319 320 319 320 321 321 321 322 321 320 321 319 319 318 319 319 317 319 323 324 324 324 327 329 331 332 332
324 324 321 320 317 317 316 318 319 319 319 317 317 316 317 318 317 318 320 322 321 320 320 320 319 321 321 321 321 322 322 321 321 320 320 320 319 320 319 320 322 322 323 326 327 329 330 331 331
324 322 319 317 317 317 318 318 318 319 319 317 317 317 317 317 317 319 321 322 321 320 321 319 321 321 322 321 322 322 322 321 321 321 320 320 321 321 321 322 323 324 325 327 328 328 329 330 332
320 321 320 319 318 318 317 319 319 320 319 319 317 317 316 317 317 319 321 322 321 321 320 320 322 322 322 321 322 323 323 322 322 322 320 320 321 321 321 324 325 323 323 326 327 327 326 330 332
320 320 322 320 318 317 318 322 321 319 319 320 317 316 317 317 317 319 322 322 321 320 321 320 322 323 324 324 323 324 324 324 324 323 323 322 322 323 323 325 326 323 325 326 327 327 328 330 330
322 326 325 322 318 317 318 321 320 318 319 321 318 317 317 317 318 319 322 322 322 319 320 319 321 323 322 323 324 324 325 325 325 324 324 325 325 325 324 326 324 326 325 328 328 329 328 330 328
324 323 321 322 321 318 319 318 321 319 319 320 319 317 318 318 319 320 322 322 322 320 318 319 322 323 323 323 324 325 326 325 324 324 324 325 325 325 326 325 325 325 327 329 329 329 329 330 327
323 323 324 322 321 320 321 322 321 321 319 320 319 318 318 319 318 320 322 323 323 323 322 318 322 320 319 325 325 325 326 325 326 324 322 324 324 325 327 327 328 328 331 330 330 329 329 328 330
322 323 324 323 320 320 322 322 322 321 321 321 321 319 319 319 318 320 322 323 324 322 319 321 317 316 317 324 325 324 324 324 324 324 325 324 324 325 326 327 327 328 328 329 330 329 330 329 330
323 324 324 324 321 319 320 322 323 322 319 319 320 320 319 319 319 321 322 323 323 322 320 321 316 316 319 325 326 325 326 326 325 326 325 325 326 326 326 326 327 328 327 328 329 327 329 329 330
326 323 323 323 323 325 320 325 323 323 324 322 321 319 319 319 319 321 322 321 324 323 319 317 320 318 323 325 327 326 328 328 326 326 326 327 327 326 325 328 328 328 328 329 328 326 328 329 329
325 322 323 323 324 322 322 322 322 322 324 325 326 321 319 318 319 321 321 320 322 323 322 320 322 319 324 325 324 325 326 328 327 327 327 327 327 326 327 328 328 328 328 327 328 327 328 329 331
323 322 321 321 322 325 323 322 322 323 324 325 325 322 319 318 318 320 320 319 321 324 323 321 324 319 323 324 324 323 323 326 326 327 325 325 326 326 327 327 327 328 328 326 328 329 329 329 331
323 325 326 327 327 325 322 322 323 324 325 323 324 324 319 318 318 321 321 319 320 323 323 323 324 322 320 323 325 321 320 323 326 326 327 325 326 326 327 327 328 327 326 323 325 329 329 328 328
324 326 325 328 325 324 322 324 322 325 326 326 324 323 319 318 318 321 321 320 320 322 324 323 323 323 318 322 323 319 319 321 323 328 328 328 327 326 327 327 328 328 327 327 328 329 328 328 327
321 323 323 325 322 323 323 325 326 328 328 326 322 319 318 318 319 321 321 320 320 321 325 325 324 323 319 319 320 320 318 318 320 327 328 327 325 328 327 327 328 328 328 327 327 327 327 328 327
323 321 323 321 325 327 323 326 325 326 327 330 324 322 319 318 319 320 321 320 320 321 322 325 325 323 321 319 318 319 318 318 319 324 327 326 325 324 324 327 328 329 328 328 327 328 328 327 328
321 323 323 323 322 326 327 325 327 328 333 335 331 324 320 319 319 320 321 320 320 321 321 323 325 322 322 319 319 319 317 317 319 319 322 322 321 321 322 324 325 328 329 328 327 329 329 330 329
324 324 325 325 327 324 325 325 324 331 333 334 331 323 320 319 319 319 320 320 320 320 321 322 325 323 321 319 319 319 319 316 320 319 321 320 320 322 324 325 325 326 328 328 328 328 328 329 328
Wind_Speed
12 10 6 3 3 2 1 1 2 3 2 1 5 3 6 2 5 1 2 8 3 1 6 17 17 17 17 16 18 17 17 18 15 13 12 12 12 13 12 11 10 9 10 10 9 9 7 6 5
11 7 2 0 2 2 3 2 8 7 2 4 4 3 2 3 1 2 2 7 5 6 8 12 18 18 17 20 19 19 18 17 16 16 15 14 14 14 15 14 12 9 10 11 11 9 8 7 6
7 4 2 1 1 2 5 2 8 3 3 4 3 1 1 1 2 2 5 7 7 7 8 9 13 16 20 21 20 19 19 19 19 20 19 18 16 16 17 16 15 12 11 12 11 11 10 9 8
4 2 3 1 2 3 5 10 4 4 3 4 2 3 2 3 2 3 5 8 9 10 12 13 14 17 19 18 18 20 20 20 22 22 21 22 19 18 18 18 15 12 11 11 13 12 12 11 9
3 1 2 1 3 4 6 6 6 9 4 4 6 4 2 2 2 5 3 6 10 11 13 13 14 15 15 15 18 20 21 23 23 24 25 24 23 21 20 20 18 16 13 11 12 14 13 13 11
2 1 2 3 5 5 7 8 6 10 9 4 4 4 2 2 3 1 1 1 1 1 3 5 7 11 14 15 19 20 20 20 20 23 25 26 25 23 22 21 20 18 16 14 13 15 14 15 14
2 2 3 4 7 7 4 4 6 8 7 7 4 4 1 5 4 5 3 1 1 0 3 6 8 12 15 17 18 19 19 18 19 18 19 19 25 24 23 23 21 19 16 15 14 15 16 14 16
2 2 4 3 5 9 2 4 1 10 10 4 4 4 2 4 8 7 4 2 1 4 7 10 12 14 14 14 17 20 19 20 18 17 17 16 16 18 21 24 23 19 15 15 15 15 17 16 14
2 3 5 5 3 4 3 6 3 0 4 3 3 1 1 12 9 5 1 2 4 6 9 11 11 10 11 14 13 16 17 16 14 12 12 12 12 14 16 17 22 21 16 14 15 14 17 17 14
5 3 5 5 5 8 5 9 6 6 4 4 3 5 9 9 8 5 1 3 6 8 9 8 11 10 12 12 12 12 10 9 9 10 12 12 11 12 17 21 20 20 17 14 15 15 15 17 14
5 9 10 11 16 11 6 6 7 7 6 9 13 12 11 9 7 3 2 3 6 9 11 10 12 10 12 10 8 8 10 12 11 12 11 10 10 11 10 13 16 16 15 15 14 15 16 16 15
8 11 9 8 5 5 5 5 7 10 9 2 9 15 13 10 7 3 2 5 8 11 12 11 9 9 11 10 7 8 10 10 9 11 8 9 10 9 10 12 13 13 14 15 14 12 15 15 15
9 13 5 6 4 5 6 5 6 11 6 4 12 14 12 9 7 5 2 3 6 10 10 10 9 9 11 9 8 9 9 9 9 8 6 7 6 5 5 9 11 12 13 13 12 12 15 16 15
6 9 1 1 1 1 3 2 2 3 7 9 14 14 11 10 9 5 4 4 5 9 9 10 9 9 11 8 10 10 10 9 8 7 6 7 6 4 4 7 9 11 12 11 13 16 16 16 16
3 5 3 2 2 1 3 5 9 7 10 12 13 11 10 10 9 7 5 4 4 7 9 10 10 9 11 10 10 10 10 9 6 4 5 7 7 6 6 7 9 12 13 11 13 15 16 14 14
4 3 2 1 3 0 7 13 10 8 13 14 13 11 11 11 11 9 6 4 3 7 8 9 10 10 11 11 10 10 9 8 7 6 5 7 8 8 8 8 10 12 12 13 16 16 16 17 15
2 4 5 5 5 2 8 10 7 3 13 13 13 13 12 10 10 9 8 5 4 7 8 9 9 12 12 11 10 9 8 7 7 7 7 8 9 10 11 10 11 12 15 13 15 15 17 16 18
8 3 3 4 2 5 7 14 19 8 12 15 14 13 12 12 12 11 10 7 5 7 8 8 7 12 15 11 9 6 3 6 6 6 5 2 3 3 8 11 11 13 15 15 17 17 17 18 23
7 4 4 5 6 4 9 13 18 11 11 13 13 15 15 14 12 10 10 7 6 7 7 6 7 11 15 11 8 8 8 7 5 6 5 6 4 5 9 11 11 13 15 16 18 20 22 23 25
6 4 5 6 4 4 10 14 16 11 8 13 16 16 17 14 11 12 11 8 6 5 5 5 7 11 13 10 8 7 7 5 8 7 5 7 8 8 10 10 10 12 15 17 20 22 22 19 27
6 6 4 8 1 5 6 8 7 6 5 6 10 15 16 17 15 12 13 10 7 4 3 3 5 9 11 12 10 6 5 7 9 14 12 13 9 8 9 10 11 14 18 19 22 27 21 18 21
10 11 6 5 4 8 2 6 6 8 12 9 11 14 16 17 14 12 14 11 9 4 1 2 5 8 8 10 9 10 9 7 5 8 12 17 16 13 12 11 12 17 20 19 19 24 22 24 20
9 6 5 3 6 2 4 4 4 4 9 14 11 14 16 18 17 15 15 13 10 6 2 0 3 6 5 6 7 8 9 8 5 5 9 11 13 15 16 13 17 21 22 24 22 28 23 23 20
5 4 3 2 2 4 6 6 3 5 7 6 4 8 16 18 17 14 17 12 10 8 3 2 2 3 2 5 7 10 10 8 10 9 8 7 8 13 14 15 12 24 21 21 24 27 25 17 16
8 7 5 4 4 6 2 4 8 12 12 9 14 6 14 17 17 15 15 14 12 10 7 4 2 2 2 3 6 8 9 9 10 12 7 7 4 10 14 15 14 18 23 21 15 27 25 21 23
13 13 8 5 4 7 3 5 5 4 3 5 7 3 12 17 16 16 16 17 14 12 10 6 3 1 1 2 4 7 9 8 8 9 10 11 11 8 9 10 14 22 25 27 22 23 23 19 21
7 7 6 9 1 4 3 5 10 2 6 1 3 6 12 17 17 16 17 17 15 12 12 9 5 3 1 1 2 5 8 10 10 14 12 12 8 6 6 6 7 13 17 18 17 17 17 17 17
13 12 5 2 5 7 4 3 7 8 8 2 4 7 12 15 15 15 15 17 15 13 9 10 8 4 3 1 1 3 5 8 9 9 12 11 6 2 4 4 5 17 15 16 13 13 12 13 13
7 9 3 3 3 8 8 5 5 5 4 5 6 9 14 17 17 14 15 18 16 12 10 9 10 8 6 4 3 2 5 6 8 9 7 5 6 6 9 11 11 13 15 15 15 10 10 9 14
22 18 15 10 10 4 5 10 5 8 5 5 1 7 12 17 17 14 16 18 16 13 12 11 11 9 7 7 5 3 5 6 7 9 11 10 9 10 11 15 17 17 16 14 14 11 11 15 14
Wind_Direction
145 141 153 205 232 272 291 204 301 252 226 147 118 175 204 143 184 267 350 174 141 200 226 234 236 236 242 250 256 255 259 261 253 256 265 267 267 268 264 261 256 256 256 250 244 246 246 252 243
145 140 170 150 255 292 319 267 244 236 133 129 142 132 184 245 214 267 219 187 211 227 247 250 242 242 255 254 254 257 258 255 257 264 269 269 262 260 260 256 254 251 254 254 243 240 241 239 245
136 158 226 92 124 321 313 241 290 277 214 190 170 216 189 207 204 240 217 190 226 248 253 245 236 242 248 250 257 261 264 254 258 264 268 269 265 260 259 252 250 248 247 253 250 237 234 232 237
176 136 103 249 281 257 250 298 258 240 163 202 176 226 197 216 190 195 223 228 244 248 246 243 244 244 250 250 255 258 258 265 262 263 267 265 260 254 251 249 246 244 242 245 250 247 231 232 231
58 156 157 169 273 260 247 264 214 216 203 177 172 223 228 200 189 184 231 254 264 266 266 260 258 256 256 260 262 266 272 272 271 269 267 265 260 251 243 243 243 245 245 248 248 249 237 225 226
135 258 228 280 276 261 275 239 201 221 211 136 189 186 203 116 158 194 140 128 46 334 295 285 272 261 263 271 271 273 276 278 277 276 268 265 261 253 240 238 239 244 246 245 247 246 247 224 227
204 211 274 288 299 299 277 148 207 223 230 223 133 201 132 165 154 148 147 89 73 344 302 294 285 275 271 267 269 275 283 290 288 285 280 275 262 254 248 230 233 236 239 243 241 240 240 229 226
183 222 181 229 305 300 298 196 253 210 242 106 161 241 236 165 153 144 128 84 325 311 309 297 280 273 271 279 286 289 288 288 291 288 281 283 267 254 245 235 237 230 238 242 239 243 235 233 221
153 232 253 258 241 287 199 221 164 278 156 124 145 230 60 142 149 152 137 358 332 320 308 301 293 281 291 304 302 302 298 294 293 288 288 291 277 264 257 248 235 231 234 243 241 244 229 228 216
212 230 233 225 217 255 227 219 195 191 152 197 183 112 136 151 169 189 255 318 325 322 313 306 301 291 307 312 309 314 318 314 306 302 300 292 282 276 260 244 240 230 225 244 244 240 230 220 203
191 250 250 251 246 247 248 208 190 202 206 207 213 168 165 170 174 175 277 311 318 316 319 314 315 307 316 310 307 318 328 328 318 310 301 293 287 275 264 233 228 231 233 239 235 230 224 205 194
239 239 242 286 261 191 223 163 205 211 239 157 203 165 170 178 180 185 265 338 328 319 313 319 309 312 322 321 309 318 320 316 309 306 297 299 291 271 251 216 212 218 222 222 226 222 205 192 190
231 260 204 253 257 213 149 224 235 236 211 124 145 162 175 175 177 193 218 304 310 310 312 316 319 317 330 327 324 323 321 311 295 289 284 278 281 274 222 209 201 201 206 213 213 202 192 185 184
227 232 203 112 310 170 214 202 224 278 161 154 163 174 175 180 183 189 219 265 304 309 317 330 334 326 336 330 333 332 329 323 309 292 269 264 261 258 230 200 198 198 200 194 185 179 175 177 177
267 193 138 175 200 12 195 248 232 233 179 178 183 176 177 187 185 201 218 244 298 313 320 338 343 337 344 340 337 334 326 313 300 288 268 264 254 252 237 225 211 202 187 172 171 171 177 176 169
214 99 172 106 182 146 217 275 274 215 181 197 188 186 187 190 197 206 210 237 288 306 314 338 346 342 348 345 339 335 327 311 300 294 278 259 255 255 246 230 207 190 178 170 166 167 170 170 170
186 247 275 293 212 159 214 268 275 194 206 206 194 192 196 195 201 208 212 223 270 300 318 333 338 351 344 336 335 329 324 328 334 322 293 271 264 254 232 213 197 180 178 169 166 164 166 159 167
236 203 198 246 242 213 245 254 273 253 213 219 202 194 196 203 203 198 205 218 258 292 312 340 357 6 4 352 343 323 321 3 355 0 341 303 286 230 182 194 183 181 169 165 167 164 162 158 160
225 196 227 242 256 257 262 273 276 277 232 220 205 199 199 205 199 194 198 213 250 288 297 328 346 356 3 3 358 338 0 9 30 41 341 304 223 185 160 161 166 170 168 168 168 159 153 155 146
181 190 238 270 271 223 280 274 277 267 250 226 213 202 200 194 193 191 194 206 230 287 306 313 339 347 5 355 347 330 347 36 51 30 25 22 156 167 176 169 167 171 170 167 163 155 148 146 143
188 210 219 286 311 239 279 274 282 292 259 242 227 216 201 194 188 187 187 200 215 268 318 333 343 348 4 0 4 14 60 62 61 44 73 87 97 152 163 166 171 170 176 159 159 157 150 149 147
219 218 240 247 267 292 228 296 292 294 291 262 233 207 199 192 193 183 183 192 204 228 240 56 15 13 29 36 29 42 61 67 50 61 65 71 81 105 118 139 139 142 153 142 145 159 151 143 138
241 165 205 231 252 295 212 243 272 291 278 271 250 209 199 191 185 183 183 186 194 207 199 187 15 24 45 32 17 9 42 59 71 75 83 73 68 79 81 101 121 138 149 143 145 157 156 149 151
161 133 93 95 176 249 243 227 266 247 249 269 260 201 195 186 184 181 180 176 190 203 189 161 43 28 63 20 21 23 36 51 67 69 53 52 46 62 84 97 112 127 143 128 144 153 152 149 142
176 190 238 236 219 268 103 200 263 269 267 277 295 263 193 183 178 178 174 179 186 198 188 174 107 21 34 340 355 37 42 55 61 57 35 48 43 63 74 84 94 132 140 149 152 150 156 156 155
196 206 232 237 241 292 138 233 261 275 340 306 316 257 175 178 180 180 177 179 185 193 193 181 140 94 61 51 25 35 47 46 62 56 50 92 111 98 93 102 99 124 140 137 146 158 164 152 153
176 200 231 247 52 260 253 248 279 270 253 290 94 161 171 180 181 181 177 181 185 191 196 193 174 163 179 97 24 38 48 46 67 58 87 117 109 91 103 111 116 150 153 145 130 131 140 160 155
204 161 177 192 227 252 215 263 266 294 314 249 201 189 175 179 185 183 179 183 190 193 186 192 190 180 186 198 99 43 60 52 65 108 90 99 98 90 121 115 104 159 167 166 162 144 140 146 158
179 202 188 231 233 256 272 263 231 227 290 309 231 199 176 179 189 187 181 186 193 191 189 186 187 178 181 184 175 94 88 84 62 84 93 74 73 88 102 117 130 156 168 169 174 162 164 150 156
206 207 206 225 211 231 272 266 194 215 256 292 188 188 192 179 185 188 186 185 190 192 194 195 186 181 180 183 172 155 112 103 86 83 86 88 71 87 95 107 108 111 125 136 135 138 146 153 149